"Pseudo-MPEC" for P10LqNn

Created 2019 Jan 27 1:18:31 UT using Find_Orb

Click here for an explanation of pseudo-MPECs

 
 Astrometry: 
     P10LqNn  C2019 01 12nn)AstrometryNKM5D$Ys8#2:Mredacted;J(8`kdWnX`vLTTY-CF51
     P10LqNn  C2019 01 12$ev^click;'2(O]dACU+U#=oDJZherex)ABa,x^D98bAnt#w1g/vF51
     P10LqNn  C2019 01 12JyA3Sfore]3A.:(:8@^,X'Lu*I`qexplanationhoGl3F3!S^gKYF51
     P10LqNn ^C2019 01 13.39333305 59 32.696+51 09 25.14   ~1DKI 21.96GVNEOCP568
     P10LqNn ^C2019 01 13.39428205 59 32.591+51 09 24.75   ~1DKI 21.95GVNEOCP568
     P10LqNn ^C2019 01 13.39524205 59 32.476+51 09 24.38   ~1DKI 22.01GVNEOCP568

Station data:
(568) Mauna Kea  (N19.826116 W155.472200)  US/Hawaii.
(F51) Pan-STARRS 1, Haleakala  (N20.707235 W156.255910)  US/Hawaii.
   Observers N. Primak, A. Schultz, S. Watters, J. Thiel, T. Goggia. Measurer
   PS1 Science Consortium. 1.8-m Ritchey-Chrétien + CCD.

Orbital elements:  P10LqNn
   Perihelion 2019 May 4.366552 +/- 207 TT =  8:47:50 (JD 2458607.866552)
Epoch 2019 Jan 13.0 TT = JDT 2458496.5   Earth MOID: 0.2950   Ju: 0.8273
M 335.64975858 +/- 80               (J2000 ecliptic)          AutoNEOCP
n   0.21864950 +/- 0.153            Peri.  188.09314 +/- 46
a   2.72879168 +/- 1.27             Node   349.01664 +/- 33
e   0.5280435 +/- 0.233             Incl.   14.06353 +/- 4.5
P   4.51                   H 20.6   G  0.15   U 11.5  SR
q 1.28787070 +/- 0.263    Q 4.16971267 +/- 3.12
From 6 observations 2019 Jan. 12-13 (23.5 hr); mean residual 0".24
Residuals in arcseconds: 
190112 F51  .57+  .09+    190112 F51  .56-  .04-    190113 568  .03+  .01-    
190112 F51  .03-  .05-    190113 568  .04+  .03+    190113 568  .05-  .02-    

Ephemerides (geocentric):
Date (UTC) HH   RA              Dec         delta   r     elong  mag " sig PA
---- -- -- --  -------------   -----------  ------ ------ -----  --- ---- ---
2019 01 27 01  05 40 54.688   +48 57 21.62  .80254 1.6449 133.7 22.4 1728 149
2019 01 27 02  05 40 52.376   +48 56 49.69  .80250 1.6446 133.7 22.4 1737 149
2019 01 27 03  05 40 50.071   +48 56 17.72  .80246 1.6444 133.6 22.4 1746 149
2019 01 27 04  05 40 47.774   +48 55 45.71  .80242 1.6441 133.6 22.4 1755 148
2019 01 27 05  05 40 45.484   +48 55 13.67  .80238 1.6439 133.6 22.4 1765 148
2019 01 27 06  05 40 43.203   +48 54 41.58  .80233 1.6436 133.5 22.4 1774 148
2019 01 27 07  05 40 40.929   +48 54 09.45  .80229 1.6434 133.5 22.4 1783 148
2019 01 27 08  05 40 38.662   +48 53 37.29  .80225 1.6431 133.5 22.4 1792 148
2019 01 27 09  05 40 36.403   +48 53 05.09  .80222 1.6429 133.4 22.4 1802 148
2019 01 27 10  05 40 34.152   +48 52 32.85  .80218 1.6426 133.4 22.4 1811 148
2019 01 27 11  05 40 31.909   +48 52 00.57  .80214 1.6424 133.4 22.4 1820 148
2019 01 27 12  05 40 29.673   +48 51 28.25  .80210 1.6421 133.3 22.4 1830 148
2019 01 27 13  05 40 27.445   +48 50 55.89  .80206 1.6419 133.3 22.4 1839 148
2019 01 27 14  05 40 25.225   +48 50 23.50  .80202 1.6416 133.2 22.4 1848 148
2019 01 27 15  05 40 23.012   +48 49 51.07  .80198 1.6414 133.2 22.4 1858 148
2019 01 27 16  05 40 20.807   +48 49 18.59  .80194 1.6411 133.2 22.4 1867 148
2019 01 27 17  05 40 18.610   +48 48 46.08  .80190 1.6409 133.1 22.4 1877 147
2019 01 27 18  05 40 16.420   +48 48 13.54  .80187 1.6406 133.1 22.4 1886 147
2019 01 27 19  05 40 14.239   +48 47 40.95  .80183 1.6404 133.1 22.4 1896 147
2019 01 27 20  05 40 12.065   +48 47 08.33  .80179 1.6401 133.0 22.4 1905 147
2019 01 27 21  05 40 09.898   +48 46 35.67  .80176 1.6399 133.0 22.4 1915 147
2019 01 27 22  05 40 07.740   +48 46 02.97  .80172 1.6396 133.0 22.4 1924 147
2019 01 27 23  05 40 05.589   +48 45 30.23  .80168 1.6394 132.9 22.4 1934 147
2019 01 28 00  05 40 03.446   +48 44 57.46  .80165 1.6391 132.9 22.4 1943 147
2019 01 28 01  05 40 01.311   +48 44 24.65  .80161 1.6389 132.8 22.4 1953 147
2019 01 28 02  05 39 59.183   +48 43 51.80  .80157 1.6386 132.8 22.4 1963 147
2019 01 28 03  05 39 57.063   +48 43 18.91  .80154 1.6384 132.8 22.4 1972 147
2019 01 28 04  05 39 54.951   +48 42 45.99  .80150 1.6381 132.7 22.4 1982 147
2019 01 28 05  05 39 52.847   +48 42 13.03  .80147 1.6379 132.7 22.4 1992 146
2019 01 28 06  05 39 50.750   +48 41 40.03  .80143 1.6376 132.7 22.4 2001 146
2019 01 28 07  05 39 48.662   +48 41 06.99  .80140 1.6374 132.6 22.4 2011 146
2019 01 28 08  05 39 46.581   +48 40 33.92  .80136 1.6371 132.6 22.4 2021 146
2019 01 28 09  05 39 44.508   +48 40 00.81  .80133 1.6369 132.6 22.4 2031 146
2019 01 28 10  05 39 42.442   +48 39 27.67  .80129 1.6366 132.5 22.4 2041 146
2019 01 28 11  05 39 40.385   +48 38 54.49  .80126 1.6364 132.5 22.4 2050 146
2019 01 28 12  05 39 38.335   +48 38 21.27  .80122 1.6361 132.5 22.4 2060 146
2019 01 28 13  05 39 36.293   +48 37 48.01  .80119 1.6359 132.4 22.4 2070 146
2019 01 28 14  05 39 34.259   +48 37 14.72  .80116 1.6356 132.4 22.4 2080 146
2019 01 28 15  05 39 32.233   +48 36 41.39  .80112 1.6354 132.3 22.4 2090 146
2019 01 28 16  05 39 30.215   +48 36 08.03  .80109 1.6351 132.3 22.4 2100 146
2019 01 28 17  05 39 28.204   +48 35 34.63  .80106 1.6349 132.3 22.4 2110 145
2019 01 28 18  05 39 26.202   +48 35 01.19  .80103 1.6346 132.2 22.4 2120 145
2019 01 28 19  05 39 24.207   +48 34 27.72  .80099 1.6344 132.2 22.4 2130 145
2019 01 28 20  05 39 22.220   +48 33 54.21  .80096 1.6341 132.2 22.4 2140 145
2019 01 28 21  05 39 20.241   +48 33 20.66  .80093 1.6339 132.1 22.4 2150 145
2019 01 28 22  05 39 18.269   +48 32 47.08  .80090 1.6336 132.1 22.4 2160 145
2019 01 28 23  05 39 16.306   +48 32 13.46  .80087 1.6334 132.1 22.4 2170 145
2019 01 29 00  05 39 14.350   +48 31 39.81  .80084 1.6331 132.0 22.4 2180 145